This is the latest recevied weather packets stored in our database for station/object KJ7HSW. If no packets are shown the sender has not sent any weather packets the latest 10 day(s).
| Time | Temp. | Humidity | Pressure | Rain* | Wind** | Luminosity | Snow |
|---|---|---|---|---|---|---|---|
| 1777772872 | 23.33° C | 46% | 1013.6 hPa | 0 mm | - | 40 W/m² | - |
| 1777772570 | 24.44° C | 45% | 1013.6 hPa | 0 mm | - | 42 W/m² | - |
| 1777772267 | 24.44° C | 44% | 1013.5 hPa | 0 mm | - | 49 W/m² | - |
| 1777771964 | 24.44° C | 41% | 1013.6 hPa | 0 mm | - | 58 W/m² | - |
| 1777771661 | 24.44° C | 42% | 1013.6 hPa | 0 mm | - | 48 W/m² | - |
| 1777771359 | 24.44° C | 46% | 1013.6 hPa | 0 mm | - | 55 W/m² | - |
| 1777771055 | 24.44° C | 42% | 1013.5 hPa | 0 mm | - | 52 W/m² | - |
| 1777770753 | 25° C | 42% | 1013.6 hPa | 0 mm | - | 60 W/m² | - |
| 1777770448 | 24.44° C | 43% | 1013.6 hPa | 0 mm | - | 52 W/m² | - |
| 1777770145 | 24.44° C | 43% | 1013.4 hPa | 0 mm | - | 55 W/m² | - |
| 1777769843 | 25° C | 43% | 1013.6 hPa | 0 mm | - | 56 W/m² | - |
| 1777769540 | 25° C | 41% | 1013.4 hPa | 0 mm | - | 55 W/m² | - |
| 1777769236 | 25.56° C | 42% | 1013.6 hPa | 0 mm | - | 56 W/m² | - |
| 1777768935 | 25.56° C | 42% | 1013.6 hPa | 0 mm | - | 60 W/m² | - |
| 1777768632 | 25.56° C | 43% | 1013.7 hPa | 0 mm | - | 155 W/m² | - |
| 1777768329 | 26.11° C | 41% | 1013.6 hPa | 0 mm | - | 63 W/m² | - |
| 1777768025 | 26.11° C | 39% | 1013.6 hPa | 0 mm | - | 66 W/m² | - |
| 1777767722 | 26.11° C | 38% | 1013.5 hPa | 0 mm | - | 65 W/m² | - |
| 1777767418 | 26.11° C | 40% | 1013.6 hPa | 0 mm | - | 99 W/m² | - |
| 1777767115 | 26.11° C | 40% | 1013.6 hPa | 0 mm | - | 72 W/m² | - |
| 1777766813 | 26.11° C | 40% | 1013.6 hPa | 0 mm | - | 75 W/m² | - |
| 1777766509 | 26.67° C | 38% | 1013.6 hPa | 0 mm | - | 124 W/m² | - |
| 1777766206 | 26.67° C | 39% | 1013.6 hPa | 0 mm | - | 162 W/m² | - |
| 1777765904 | 27.78° C | 38% | 1013.7 hPa | 0 mm | - | 193 W/m² | - |
| 1777765600 | 27.78° C | 36% | 1013.6 hPa | 0 mm | - | 454 W/m² | - |
* Rain latest hour (hover to see other rain measurements)
** Current wind speed in m/s (hover to see current wind gust speed)